Weather History for KSAF - February, 2014

Change the Weather History Date:

Tuesday, February 4, 2014

  Actual Average Record
Temperature  
Mean Temperature 26 °F -  
Max Temperature 30 °F 0 °F 57 °F (2009)
Min Temperature 21 °F - 1 °F (2011)
Degree Days  
Heating Degree Days 40    
Moisture  
Dew Point 24 °F    
Average Humidity 88    
Maximum Humidity 100    
Minimum Humidity 61    
Precipitation  
Precipitation 0.09 in - - ()
Sea Level Pressure  
Sea Level Pressure 29.81 in    
Wind  
Wind Speed 8 mph (West)    
Max Wind Speed 25 mph    
Max Gust Speed 33 mph    
Visibility 6 miles    
Events Fog , Snow    
Averages and records for this station are not official NWS values.
T = Trace of Precipitation, MM = Missing Value Source: NWS Daily Summary

Daily Weather History Graph

Daily Weather History Graph

Search for Another Location

Airport or City:

Trip Planner

Search our weather history database for the weather conditions in past years. The results will help you decide how hot, cold, wet, or windy it might be!

Date:

Astronomy

Feb. 04, 2014 Rise Set
Actual Time 7:01 AM MST 5:35 PM MST
Civil Twilight 6:35 AM MST 6:01 PM MST
Nautical Twilight 6:04 AM MST 6:32 PM MST
Astronomical Twilight 5:34 AM MST 7:02 PM MST
Moon 9:54 AM MST (2/4) 11:18 PM MST (2/4)
Length of Visible Light 11h 26m
Length of Day
10h 33m
Waxing Crescent, 29% of the Moon is Illuminated
Feb 4
Waxing Crescent
Feb 6
First Quarter
Feb 14
Full
Feb 22
Last Quarter
Mar 1
New

Hourly Weather History & Observations

Time (MST) Temp. Windchill Dew Point Humidity Pressure Visibility Wind Dir Wind Speed Gust Speed Precip Events Conditions
12:04 AM 30.0 °F 24.1 °F 28.9 °F 96% 29.73 in 0.5 mi West 5.8 mph - 0.00 in Fog , Snow Snow
12:31 AM 28.9 °F 22.8 °F 28.9 °F 100% 29.73 in 1.2 mi WSW 5.8 mph - 0.00 in Snow Light Snow
12:45 AM 28.9 °F 22.8 °F 28.9 °F 100% 29.72 in 1.2 mi WSW 5.8 mph - 0.00 in Snow Light Snow
12:53 AM 28.9 °F 22.8 °F 28.9 °F 100% 29.68 in 1.0 mi West 5.8 mph - 0.00 in Snow Light Snow
1:33 AM 28.9 °F 22.8 °F 28.9 °F 100% 29.72 in 2.0 mi West 5.8 mph - 0.00 in Snow Light Snow
1:45 AM 28.9 °F 23.9 °F 28.0 °F 96% 29.71 in 6.0 mi West 4.6 mph - 0.00 in Snow Light Snow
1:53 AM 28.9 °F 25.2 °F 28.0 °F 96% 29.67 in 9.0 mi WNW 3.5 mph - 0.00 in   Overcast
2:51 AM 28.4 °F 23.3 °F 26.6 °F 93% 29.71 in 10.0 mi West 4.6 mph - N/A   Overcast
2:53 AM 28.9 °F 22.8 °F 27.0 °F 92% 29.66 in 10.0 mi West 5.8 mph - N/A   Overcast
3:53 AM 28.0 °F 22.8 °F 28.0 °F 100% 29.68 in 10.0 mi West 4.6 mph - N/A   Overcast
4:05 AM 28.9 °F 23.9 °F 27.0 °F 92% 29.73 in 10.0 mi West 4.6 mph - N/A   Overcast
4:16 AM 28.0 °F 22.8 °F 27.0 °F 96% 29.73 in 8.0 mi WSW 4.6 mph - N/A   Overcast
4:36 AM 27.0 °F - 26.1 °F 96% 29.73 in 10.0 mi Calm Calm - N/A   Overcast
4:53 AM 27.0 °F - 27.0 °F 100% 29.70 in 10.0 mi Calm Calm - N/A   Overcast
5:07 AM 27.0 °F 21.6 °F 26.1 °F 96% 29.74 in 2.0 mi SW 4.6 mph - N/A   Overcast
5:11 AM 27.0 °F 20.5 °F 26.1 °F 96% 29.74 in 0.8 mi SW 5.8 mph - N/A   Overcast
5:23 AM 28.0 °F 22.8 °F 28.0 °F 100% 29.74 in 0.5 mi SW 4.6 mph - N/A Fog Light Freezing Fog
5:44 AM 28.0 °F 20.0 °F 27.0 °F 96% 29.75 in 1.2 mi SW 8.1 mph - 0.00 in Snow Light Snow
5:49 AM 28.4 °F 21.2 °F 26.6 °F 93% 29.75 in 0.8 mi SW 6.9 mph - 0.00 in Snow Light Snow
5:51 AM 28.4 °F 21.2 °F 26.6 °F 93% 29.76 in 1.0 mi SW 6.9 mph - 0.00 in Snow Light Snow
5:53 AM 27.0 °F 19.5 °F 27.0 °F 100% 29.73 in 1.0 mi SW 6.9 mph - 0.00 in Snow Light Snow
6:09 AM 27.0 °F 18.7 °F 26.1 °F 96% 29.76 in 1.0 mi WSW 8.1 mph - 0.00 in Snow Light Snow
6:22 AM 26.1 °F 17.6 °F 26.1 °F 100% 29.76 in 0.8 mi SW 8.1 mph - 0.00 in Snow Light Snow
6:27 AM 26.1 °F 16.8 °F 25.0 °F 96% 29.76 in 0.8 mi SW 9.2 mph - 0.00 in Snow Light Snow
6:32 AM 26.1 °F 16.8 °F 25.0 °F 96% 29.76 in 1.8 mi WSW 9.2 mph - 0.00 in Snow Light Snow
6:34 AM 26.1 °F 16.2 °F 25.0 °F 96% 29.76 in 3.0 mi WSW 10.4 mph - 0.00 in Snow Light Snow
6:48 AM 26.6 °F 16.8 °F 24.8 °F 93% 29.77 in 9.0 mi WSW 10.4 mph - 0.00 in   Overcast
6:53 AM 26.1 °F 16.8 °F 24.1 °F 92% 29.76 in 10.0 mi WSW 9.2 mph - 0.00 in   Overcast
7:53 AM 24.1 °F 19.7 °F 23.0 °F 96% 29.80 in 10.0 mi WNW 3.5 mph - N/A   Overcast
8:01 AM 24.1 °F 18.2 °F 21.9 °F 91% 29.78 in 10.0 mi WSW 4.6 mph - N/A   Overcast
8:09 AM 24.1 °F 17.0 °F 21.9 °F 91% 29.79 in 10.0 mi West 5.8 mph - N/A   Overcast
8:16 AM 23.0 °F 15.8 °F 21.0 °F 92% 29.79 in 10.0 mi West 5.8 mph - N/A   Overcast
8:53 AM 24.1 °F 12.5 °F 21.0 °F 88% 29.82 in 10.0 mi WSW 12.7 mph - N/A   Scattered Clouds
9:53 AM 27.0 °F 15.2 °F 21.9 °F 81% 29.83 in 10.0 mi WSW 15.0 mph - N/A   Clear
10:53 AM 28.9 °F 20.4 °F 23.0 °F 78% 29.83 in 10.0 mi West 9.2 mph - N/A   Clear
11:06 AM 30.0 °F 18.3 °F 24.1 °F 79% 29.83 in 0.8 mi WSW 17.3 mph - N/A   Haze
11:16 AM 28.9 °F 15.8 °F 23.0 °F 78% 29.83 in 3.0 mi WSW 20.7 mph - N/A   Haze
11:23 AM 28.9 °F 16.5 °F 23.0 °F 78% 29.83 in 0.5 mi WSW 18.4 mph 26.5 mph 0.01 in Snow Snow
11:31 AM 30.0 °F 17.2 °F 23.0 °F 75% 29.82 in 0.2 mi WSW 20.7 mph 25.3 mph 0.02 in Snow Heavy Snow
11:53 AM 30.0 °F 18.3 °F 23.0 °F 75% 29.82 in 5.0 mi WSW 17.3 mph 25.3 mph 0.04 in   Haze
12:53 PM 28.9 °F 15.1 °F 23.0 °F 78% 29.80 in 5.0 mi WSW 23.0 mph 33.4 mph 0.04 in Snow Light Snow
1:22 PM 28.0 °F 19.3 °F 21.9 °F 78% 29.80 in 5.0 mi NW 9.2 mph - 0.01 in Snow Light Snow
1:53 PM 27.0 °F 13.9 °F 21.9 °F 81% 29.82 in 1.5 mi WNW 18.4 mph 28.8 mph 0.01 in Snow Light Snow
2:03 PM 28.0 °F 15.7 °F 21.9 °F 78% 29.80 in 1.5 mi West 17.3 mph - 0.00 in Snow Light Snow
2:13 PM 28.0 °F 14.3 °F 19.9 °F 72% 29.80 in 2.5 mi West 21.9 mph 27.6 mph 0.00 in Snow Light Snow
2:22 PM 28.0 °F 13.3 °F 19.9 °F 72% 29.80 in 9.0 mi West 25.3 mph 29.9 mph 0.00 in   Overcast
2:48 PM 30.2 °F 16.2 °F 19.4 °F 64% 29.81 in 1.8 mi West 25.3 mph 32.2 mph 0.00 in   Haze
2:53 PM 28.9 °F 16.1 °F 19.0 °F 67% 29.81 in 1.8 mi West 19.6 mph 32.2 mph 0.00 in   Haze
3:02 PM 28.9 °F 16.5 °F 19.9 °F 69% 29.81 in 10.0 mi WNW 18.4 mph 31.1 mph N/A   Overcast
3:53 PM 30.0 °F 19.5 °F 19.0 °F 64% 29.84 in 10.0 mi West 13.8 mph - N/A   Clear
4:53 PM 30.0 °F 20.5 °F 18.0 °F 61% 29.87 in 10.0 mi West 11.5 mph - N/A   Clear
5:27 PM 27.0 °F 11.9 °F 21.9 °F 81% 29.88 in 0.8 mi West 25.3 mph 31.1 mph 0.00 in Snow Light Snow
5:46 PM 25.0 °F 14.2 °F 21.9 °F 88% 29.88 in 2.0 mi WNW 11.5 mph - 0.00 in Snow Light Snow
5:48 PM 24.8 °F 14.0 °F 21.2 °F 86% 29.88 in 4.0 mi West 11.5 mph - 0.00 in Snow Light Snow
5:53 PM 25.0 °F 14.8 °F 21.0 °F 85% 29.92 in 9.0 mi West 10.4 mph - 0.00 in   Scattered Clouds
6:53 PM 21.0 °F 14.6 °F 17.1 °F 85% 29.98 in 10.0 mi NW 4.6 mph - N/A   Scattered Clouds
7:06 PM 23.0 °F 13.9 °F 19.0 °F 85% 29.93 in 5.0 mi West 8.1 mph - 0.00 in Snow Light Snow
7:15 PM 25.0 °F 16.3 °F 21.0 °F 85% 29.93 in 9.0 mi West 8.1 mph - 0.00 in   Overcast
7:53 PM 21.9 °F 13.4 °F 19.0 °F 89% 30.01 in 10.0 mi SW 6.9 mph - 0.00 in   Scattered Clouds
8:53 PM 23.0 °F 18.4 °F 19.9 °F 88% 30.02 in 10.0 mi West 3.5 mph - N/A   Partly Cloudy
9:53 PM 21.0 °F - 18.0 °F 88% 30.04 in 10.0 mi Calm Calm - N/A   Scattered Clouds
10:53 PM 21.9 °F - 18.0 °F 85% 30.04 in 10.0 mi Calm Calm - N/A   Partly Cloudy
11:53 PM 21.0 °F 14.6 °F 17.1 °F 85% 30.06 in 10.0 mi North 4.6 mph - N/A   Mostly Cloudy